RH
53 41 22 55 72 100 94 78 39 27 25 19 18 31 56 72 90 98 95 96 97 95 98 98 89 84 88 88 90 97 99 95 93 93 98 95 92 94
59 55 11 48 73 92 85 95 54 49 33 21 23 27 44 66 79 98 97 98 97 97 96 96 93 82 82 88 88 91 94 92 97 99 96 97 85 94
80 87 12 46 65 78 86 96 75 60 37 18 43 84 88 86 91 95 97 97 97 97 98 93 91 82 85 93 94 93 89 94 98 97 96 92 85 88
86 56 17 16 66 60 75 96 77 68 46 24 24 88 98 100 93 97 96 98 94 96 98 94 95 96 97 96 96 96 96 98 100 99 98 90 89 89
53 23 8 17 39 59 69 100 82 56 50 37 16 27 80 93 84 94 97 90 97 96 96 98 98 99 100 96 97 97 100 100 100 98 90 92 96 95
71 34 8 7 42 53 72 100 96 60 60 46 24 15 40 65 44 91 98 93 91 99 96 95 98 98 96 95 99 100 100 99 97 97 96 98 100 100
77 70 29 12 27 70 87 96 83 66 56 53 32 22 18 20 76 100 100 99 100 98 97 92 100 97 97 98 86 91 91 93 95 92 96 95 99 98
79 80 40 17 26 56 79 94 70 71 59 63 49 23 28 21 46 98 98 100 97 91 97 97 97 97 98 95 92 97 95 90 95 95 99 99 100 98
39 52 72 61 57 42 49 61 66 79 69 75 56 25 24 30 25 90 97 99 98 98 98 96 97 97 97 97 93 92 96 95 98 100 100 99 98 97
39 40 40 92 90 61 52 46 69 79 79 85 71 32 24 25 23 73 98 98 97 97 97 96 97 96 98 97 98 97 99 97 100 99 100 100 100 98
49 49 43 42 96 94 80 43 48 72 88 84 82 40 24 20 20 21 82 97 97 97 99 98 97 98 98 97 98 97 97 99 100 99 100 100 100 99
74 51 45 33 37 95 97 88 47 58 84 89 85 55 26 21 19 39 44 88 98 96 94 96 98 98 98 97 98 99 99 100 100 100 100 99 98 99
67 75 60 34 22 28 51 86 70 46 85 93 90 74 27 20 20 79 68 80 98 97 98 96 98 98 98 98 98 98 99 99 100 100 99 99 99 99
50 54 57 37 30 36 36 82 67 52 90 91 96 86 34 24 18 75 94 83 98 98 97 97 98 98 98 98 98 99 99 99 100 100 99 98 99 98
38 48 55 48 35 47 42 72 66 51 71 84 95 96 44 27 20 50 90 96 94 99 98 96 97 98 97 98 98 99 100 100 99 99 99 100 99 97
18 28 42 57 43 96 96 79 60 80 46 61 94 97 54 29 22 44 94 95 98 99 98 97 98 98 98 99 99 99 99 99 99 99 98 99 100 99
21 17 30 59 49 74 47 45 79 80 40 27 80 100 79 31 28 23 92 99 97 99 98 97 97 99 99 99 99 99 98 98 98 97 97 100 100 100
23 20 14 34 68 37 31 73 78 94 87 24 60 100 94 42 30 28 55 100 99 98 98 98 98 98 98 98 99 98 98 98 94 99 100 100 100 100
6 16 17 11 54 58 76 88 96 92 90 39 33 89 100 84 43 36 35 50 97 100 97 96 100 100 99 95 91 86 89 98 100 100 100 100 99 100
6 7 12 9 32 87 100 100 95 96 95 25 26 82 100 100 95 64 44 43 47 62 93 100 90 74 76 89 97 99 100 100 100 100 100 100 97 100
6 6 6 8 18 56 77 94 100 86 83 31 40 89 100 100 98 98 84 68 65 66 70 87 95 100 100 99 100 99 100 100 98 100 100 100 100 100
5 4 4 4 18 71 98 100 100 92 97 45 59 84 92 88 91 97 99 98 96 97 98 99 99 100 100 99 100 100 100 100 100 100 100 100 100 100
5 3 3 7 33 63 65 92 99 99 90 90 100 90 84 89 87 95 98 100 100 99 100 100 100 100 100 100 100 100 100 100 100 100 100 100 100 98
Wind_Speed
42 37 37 38 36 33 33 33 33 30 31 31 35 35 36 34 37 34 38 36 34 32 33 38 39 40 40 39 38 38 39 40 39 39 40 41 40 37
43 39 39 38 39 34 34 34 33 33 32 32 33 36 37 39 40 38 38 39 40 37 33 35 36 42 42 42 43 43 43 42 39 40 38 39 40 39
44 48 39 38 41 36 35 34 32 33 33 29 31 35 36 37 39 42 40 40 40 40 37 34 34 38 44 45 45 46 45 46 40 42 40 41 41 40
39 40 38 40 44 38 37 35 34 34 37 34 31 35 31 36 43 40 39 40 42 41 39 39 39 39 42 48 50 50 38 43 42 44 38 37 37 39
44 44 42 42 43 42 38 36 36 36 37 38 32 37 40 40 36 46 42 46 43 43 41 41 42 42 41 46 49 46 37 38 40 33 36 38 38 42
44 45 43 44 43 44 41 40 39 37 37 37 36 36 40 38 43 40 43 45 44 43 43 44 43 44 40 32 30 34 37 39 34 35 34 35 38 41
49 45 45 46 43 46 45 42 40 40 41 35 35 36 37 40 40 40 42 45 45 49 45 45 40 42 39 31 30 34 36 34 35 34 34 39 43 46
41 44 45 47 44 46 47 45 42 42 40 37 36 37 35 39 35 34 39 45 44 49 47 44 44 39 29 33 32 34 36 35 34 34 37 43 47 52
47 46 48 48 48 49 47 47 46 44 41 36 36 36 38 39 37 34 40 42 48 51 47 43 40 40 34 33 32 31 37 37 36 41 48 49 53 58
51 51 48 52 57 49 49 49 46 45 41 38 37 37 38 39 38 33 33 33 38 38 40 37 35 40 39 35 32 35 36 36 39 46 51 55 56 55
56 54 54 54 47 51 48 48 46 45 42 39 37 37 39 39 37 36 36 37 34 38 36 34 36 41 41 36 36 34 35 36 41 48 50 52 56 52
55 58 55 53 54 52 42 48 48 46 43 40 38 37 37 39 39 39 35 37 38 43 44 32 36 43 43 37 35 39 39 41 46 48 48 51 51 50
40 48 54 51 50 49 44 50 53 48 44 41 39 39 36 35 36 39 46 44 40 44 46 39 39 45 45 44 33 38 49 51 53 52 52 55 53 53
37 39 48 53 52 52 50 53 53 47 45 42 42 39 37 35 37 37 38 42 41 38 39 38 36 43 44 45 40 40 45 51 52 51 55 51 53 53
34 39 40 46 53 51 52 49 49 48 46 43 42 39 37 36 35 37 38 44 47 40 42 36 32 42 41 45 47 46 47 47 52 53 52 54 53 58
38 38 39 42 56 41 44 44 51 49 45 45 44 41 36 36 34 34 32 32 35 43 45 32 36 45 46 47 48 47 52 50 51 49 47 49 54 57
49 39 41 46 51 52 52 50 55 49 47 48 45 42 36 37 32 32 31 34 37 40 45 32 34 44 46 42 49 55 54 51 45 46 48 53 57 60
52 49 43 45 53 51 51 51 55 51 49 50 47 43 38 39 35 31 30 32 36 44 40 31 32 39 41 45 49 48 46 48 47 48 53 58 60 62
52 54 49 49 52 49 52 56 51 47 46 48 48 43 41 42 38 34 32 33 36 37 36 36 37 37 41 40 41 42 44 45 47 51 56 59 62 63
59 61 54 52 53 53 57 51 50 48 46 46 46 42 42 44 42 38 36 36 37 36 36 38 39 39 41 40 42 44 45 49 52 55 59 62 63 62
64 60 53 55 56 59 55 57 51 49 50 45 46 45 44 46 45 45 41 39 40 39 39 40 40 40 41 43 42 44 48 52 58 60 61 60 60 62
57 58 54 55 58 58 60 47 50 50 51 48 50 48 46 42 40 41 47 43 44 43 44 42 41 44 46 46 47 50 54 58 60 59 58 59 62 64
52 55 55 56 56 56 49 49 54 52 48 45 45 48 50 44 41 38 40 42 45 46 44 46 47 47 51 52 54 57 58 58 57 55 58 60 62 63
Wind_Direction
246 247 247 245 246 247 253 252 252 255 260 274 252 254 251 247 251 251 252 259 261 268 273 268 247 244 250 255 258 262 266 270 275 280 284 288 289 291
242 243 245 245 245 246 250 252 255 257 259 271 258 258 253 254 251 253 252 254 255 261 267 266 262 249 250 254 259 264 268 272 278 283 283 284 287 286
244 239 243 242 244 244 248 252 257 259 262 266 255 258 258 256 245 247 253 251 253 259 262 266 267 260 256 257 261 263 269 272 279 279 279 281 286 286
239 243 243 242 242 245 249 253 256 258 262 270 252 254 254 244 257 256 251 255 257 256 257 263 268 271 272 263 261 264 271 278 280 278 278 282 288 294
239 243 243 242 244 246 248 255 256 256 264 268 270 257 256 264 265 255 255 252 254 253 257 261 268 273 281 285 276 268 282 277 277 271 278 286 292 292
241 240 243 242 244 247 249 250 254 256 263 266 273 275 265 269 272 259 250 251 254 251 255 260 266 271 279 278 270 269 266 268 262 267 278 288 293 296
235 234 243 241 242 245 248 251 255 257 257 262 273 278 276 268 272 255 251 251 252 250 254 261 264 272 279 264 267 262 262 257 267 273 288 296 298 297
248 243 240 242 242 245 248 252 254 255 258 262 270 273 278 269 270 258 249 243 245 250 251 258 261 269 262 261 266 263 255 263 271 280 285 285 291 295
243 245 241 241 242 243 246 251 251 254 256 262 265 273 275 279 268 261 249 245 247 247 248 255 262 262 260 262 268 264 257 265 272 278 275 279 292 296
244 247 247 248 238 242 247 248 251 254 256 260 263 270 274 278 265 265 238 249 248 250 255 254 260 260 261 258 264 260 261 272 281 277 280 280 286 292
238 245 248 253 258 242 247 253 253 254 254 257 260 265 273 279 268 253 261 249 259 243 244 255 256 267 259 260 259 264 269 274 278 276 277 278 284 285
243 243 248 250 250 250 252 252 253 255 253 256 261 262 266 271 267 255 262 250 261 247 249 254 261 262 266 256 256 264 260 272 282 281 276 281 283 281
252 246 245 246 250 253 258 245 251 253 252 253 260 262 264 269 259 268 263 254 252 254 252 248 258 262 262 249 259 265 262 271 278 278 279 282 279 284
255 250 245 241 246 250 250 249 245 250 249 254 258 259 266 268 259 268 262 251 250 257 252 251 257 259 261 252 255 269 266 273 274 273 275 279 279 292
256 249 246 245 242 252 249 239 245 248 248 252 258 260 265 268 262 268 265 255 248 250 253 248 252 251 252 251 248 260 273 267 275 277 279 279 283 291
262 254 244 245 243 243 229 240 250 253 252 252 255 259 263 266 265 266 263 250 249 244 248 248 256 252 262 257 253 262 268 272 276 277 280 284 290 292
260 257 248 240 239 238 250 248 239 251 253 252 252 257 260 263 266 263 257 257 249 243 237 245 250 254 257 258 252 267 268 275 275 283 286 286 289 293
248 257 252 243 237 240 239 245 239 250 253 250 250 255 258 261 259 259 260 253 259 255 247 246 259 257 254 266 267 267 268 274 281 284 284 286 291 295
250 247 251 243 236 234 235 241 244 249 251 252 248 250 257 259 260 259 257 256 255 254 252 255 255 252 254 264 269 272 275 278 283 283 285 290 294 295
247 252 247 239 235 229 233 242 245 248 250 246 247 247 257 262 261 260 259 257 256 255 254 257 262 265 269 270 271 274 278 279 285 287 289 291 292 292
243 249 240 237 232 230 233 235 240 250 255 246 243 248 256 258 265 262 258 257 259 255 255 260 265 265 267 273 273 277 279 281 284 287 289 288 290 293
236 236 231 229 231 225 234 231 237 252 251 246 240 249 255 263 266 271 266 257 256 257 264 261 266 269 269 271 271 275 277 279 283 284 285 287 291 294
226 225 222 224 225 226 228 227 237 241 239 245 247 250 253 256 263 270 263 260 262 264 265 266 267 275 276 272 272 274 276 279 281 283 286 289 292 296